Wind_Speed
91 90 90 90 90 89 89 88 87 86 85 85 85 85 86 86 85 85 84 84 84 84 83 83 83 82 82 82 81 81 79 78 77 75 74 73 72 72 72 72 72 73 73 73 73 73 73 74 74 74 74 74 74 74 73 74 74 74 74 74 73 73 72 71 69 68 66 64 63 63 63 64 64 65 66 66 67 68 69 70 72 74 76 78 80 81
93 92 91 91 91 91 90 90 88 87 87 87 87 87 87 87 87 87 87 86 86 86 86 85 84 84 83 82 82 81 80 79 78 77 76 75 74 73 73 73 73 73 73 73 73 74 74 74 75 75 75 75 74 74 74 74 75 74 74 74 74 73 72 71 70 69 67 66 65 64 65 65 66 67 67 68 69 70 71 72 73 75 77 79 80 81
94 93 93 92 92 92 92 92 91 90 89 89 89 89 89 89 90 90 89 89 89 88 88 87 86 84 83 82 82 81 80 79 79 78 77 76 76 75 74 74 74 74 74 74 74 75 75 76 76 76 76 76 75 75 75 75 75 75 75 75 75 74 73 72 71 70 68 67 66 66 66 66 67 68 69 69 70 71 72 73 74 76 78 79 81 81
96 95 94 94 94 94 93 93 93 92 92 91 91 91 91 91 92 92 91 91 91 90 89 88 87 85 84 82 82 81 81 80 80 80 79 78 77 77 76 76 75 75 75 75 75 76 77 77 77 77 77 77 76 76 76 76 76 76 76 76 75 75 74 73 72 71 69 68 67 67 67 68 69 69 70 71 71 72 73 74 76 77 79 80 81 81
97 97 96 96 95 95 95 95 95 94 94 93 93 93 93 93 93 93 93 93 92 92 91 90 89 87 85 84 83 82 82 82 82 82 81 80 79 78 78 77 77 77 76 76 77 78 78 78 78 78 78 77 77 77 76 76 77 77 77 77 76 76 75 74 73 71 70 69 68 68 69 69 70 71 71 72 72 73 74 76 77 78 80 81 81 80
99 99 98 97 97 96 96 96 96 96 96 95 95 95 94 94 94 94 94 94 94 93 92 92 91 89 87 86 85 85 84 84 85 84 84 82 81 80 80 79 79 78 77 78 78 79 79 79 79 79 79 78 78 77 77 78 78 78 78 78 77 76 75 74 73 71 70 70 69 69 70 70 71 72 72 73 74 75 76 77 78 79 80 81 81 80
102 101 100 100 99 98 98 98 98 98 97 97 97 96 96 96 96 95 95 95 95 94 94 93 92 91 90 89 88 88 87 87 87 86 85 84 83 82 82 81 80 79 78 79 79 80 80 80 80 80 80 79 79 78 78 78 79 78 78 78 77 77 76 74 73 72 71 70 70 70 71 71 72 73 73 74 74 76 77 78 79 80 81 82 81 79
104 104 103 102 102 101 101 100 100 100 100 99 99 99 98 98 97 97 97 97 97 96 96 95 94 94 93 92 91 90 90 89 89 88 86 85 84 83 83 82 81 80 79 79 80 80 81 81 81 81 81 80 80 80 79 79 79 79 79 78 78 77 76 75 73 72 72 71 71 71 72 73 73 73 74 74 75 77 78 79 80 81 82 82 80 78
106 106 106 105 105 104 104 103 103 102 102 101 101 101 100 100 100 100 99 99 98 98 97 97 96 96 95 94 93 92 91 91 90 89 87 86 85 84 83 82 81 79 79 79 80 81 81 82 82 82 82 81 81 81 80 80 80 79 79 78 78 77 76 75 74 73 73 72 72 72 73 73 74 74 75 75 76 78 79 80 81 82 82 81 80 77
109 108 108 107 107 106 105 105 105 104 103 103 103 102 102 102 101 101 101 100 100 99 99 98 97 97 96 95 94 93 92 91 90 89 88 87 86 85 84 82 81 79 79 79 80 82 82 83 83 83 83 82 82 81 81 80 80 80 79 78 78 77 76 75 75 74 73 73 73 73 74 74 75 75 75 76 78 79 80 81 82 83 82 81 79 77
110 109 108 107 107 106 106 105 105 105 104 103 103 103 102 102 102 101 101 101 101 100 99 99 98 97 97 96 95 94 93 92 91 90 89 87 86 85 84 82 81 80 80 80 82 83 83 84 84 84 83 83 83 82 82 81 81 80 79 78 78 77 77 76 75 75 74 74 74 74 75 75 75 76 77 77 79 80 81 82 83 83 82 80 78 76
110 109 108 107 106 106 106 105 105 104 104 103 103 102 102 102 101 101 100 100 100 100 99 99 98 97 96 96 95 94 94 93 92 91 89 88 87 86 84 83 82 81 81 82 83 84 85 85 85 85 84 84 84 83 82 82 81 80 80 79 79 78 77 77 76 75 75 75 75 75 76 76 76 77 78 79 80 81 82 83 83 83 81 79 77 75
108 108 107 106 106 105 105 105 105 104 104 103 103 102 102 101 101 100 99 99 99 99 98 98 97 97 96 96 95 94 94 93 92 91 90 89 88 87 85 84 84 83 84 85 86 86 86 86 86 86 85 85 84 84 83 83 82 81 81 80 79 79 78 77 76 76 76 76 76 76 76 77 77 78 79 80 81 82 83 84 84 82 80 78 76 75
107 107 106 106 105 105 106 106 106 105 105 104 104 103 103 102 101 100 99 99 99 98 98 97 97 97 97 96 96 95 94 94 93 92 91 90 89 88 87 86 86 86 86 87 88 88 88 88 87 87 86 86 86 85 85 84 83 83 82 81 80 79 78 77 77 77 77 77 77 77 77 78 79 79 80 81 83 84 84 84 83 81 79 77 76 75
107 107 106 106 105 106 106 106 107 107 106 106 106 105 104 104 103 102 101 100 100 99 99 98 98 98 98 97 97 96 95 95 94 93 92 92 91 90 89 89 88 89 89 90 90 90 90 89 88 88 88 87 87 86 86 85 84 83 83 81 80 79 78 77 77 77 77 77 78 78 78 79 80 81 82 83 84 85 85 84 82 80 78 77 75 75
108 107 107 107 107 107 107 107 107 107 108 108 107 107 106 106 105 105 104 103 102 102 101 100 100 100 100 100 99 98 97 96 96 95 94 94 93 92 91 91 91 91 92 92 92 92 91 91 90 89 89 89 88 88 87 86 85 84 83 81 80 79 78 78 77 77 78 78 78 79 79 80 81 82 84 85 85 85 85 83 81 79 78 76 75 75
108 108 108 108 108 108 108 108 108 108 109 109 108 108 108 108 107 107 106 106 105 105 104 104 103 103 103 103 102 101 100 98 98 97 96 95 95 94 94 93 93 93 94 94 94 93 93 92 91 91 90 90 89 88 87 86 85 84 82 81 80 79 78 78 78 78 78 79 79 80 81 82 83 84 85 86 86 85 84 82 80 78 77 76 75 75
109 109 109 109 110 110 110 110 109 109 110 110 109 109 109 109 109 108 108 108 107 107 107 107 106 106 105 104 104 103 102 100 99 99 98 97 97 96 95 95 94 95 95 95 95 95 94 93 93 92 91 90 90 89 87 86 85 83 82 81 80 79 79 79 79 79 79 80 80 81 82 83 84 86 87 87 86 85 83 81 79 78 77 76 76 75
110 109 110 110 111 111 111 111 111 111 111 111 111 111 111 110 110 110 109 109 108 108 108 108 107 107 106 105 105 104 103 102 101 100 99 99 98 98 97 96 96 96 96 96 96 95 95 94 93 92 91 90 89 88 87 85 84 83 82 81 81 80 80 80 80 80 81 81 82 83 84 85 86 87 87 87 85 83 81 80 78 77 77 76 76 76
111 111 111 111 111 112 112 112 112 112 112 112 112 112 112 112 112 111 111 110 110 109 109 108 108 107 107 106 105 105 104 102 101 101 100 100 100 99 98 97 97 97 97 97 96 96 95 94 93 92 91 90 89 88 87 85 84 83 82 82 82 82 82 82 82 82 83 84 84 85 86 87 87 88 87 85 84 82 81 79 78 77 77 77 77 77
112 112 112 112 112 112 112 113 113 113 113 113 113 114 114 114 113 113 112 112 111 110 110 109 108 108 107 106 106 105 104 103 102 101 101 101 101 100 100 99 98 98 97 97 97 96 95 94 93 92 91 91 89 88 87 86 85 84 84 84 83 84 84 84 84 85 85 86 87 87 88 88 88 87 85 84 82 81 80 79 79 78 78 78 78 78
114 113 113 113 112 113 113 113 113 113 113 114 114 114 115 115 114 114 114 113 112 112 111 110 110 109 108 107 107 106 105 103 102 102 102 102 102 102 101 100 99 98 98 98 98 97 96 95 94 93 92 92 91 90 89 88 87 86 86 86 86 86 86 86 87 87 88 88 89 89 89 88 87 85 84 82 81 80 79 79 79 79 79 79 79 79
115 115 114 114 114 114 114 114 114 114 114 114 114 115 115 115 115 115 115 114 114 113 112 112 111 110 109 108 107 107 106 105 104 103 103 103 103 103 103 102 101 100 100 100 99 98 98 97 96 95 94 93 92 92 91 90 90 89 89 88 88 88 89 89 89 90 90 90 90 89 88 87 85 83 82 81 80 80 80 80 79 79 80 80 80 80
116 116 115 115 115 115 115 115 115 115 115 115 115 115 116 116 116 116 116 116 115 114 114 113 112 111 110 109 108 107 107 106 105 104 104 104 104 105 105 104 103 103 103 102 102 101 100 99 99 98 97 96 95 94 93 93 92 92 91 91 91 91 91 92 92 92 92 91 90 88 86 84 83 82 81 80 80 80 80 80 80 80 80 81 81 81
117 117 117 117 116 116 116 116 116 116 116 116 116 116 116 117 117 117 117 117 117 116 116 115 114 112 112 111 109 109 108 108 107 106 105 105 106 107 107 106 106 105 105 105 104 103 102 102 101 100 99 98 97 96 96 95 95 94 94 93 93 93 93 93 93 92 91 90 88 86 84 82 82 81 81 81 81 81 81 81 81 81 81 82 82 82
118 118 118 118 118 118 118 118 118 117 117 117 117 117 117 118 118 118 118 119 119 118 118 117 116 116 115 113 112 111 110 110 108 107 107 107 107 108 108 108 108 107 107 107 106 105 104 104 103 103 102 101 100 99 98 97 96 96 96 95 95 94 94 93 92 91 89 87 86 84 83 82 82 82 82 82 82 82 82 82 82 82 82 83 83 83
118 118 118 119 119 119 119 119 119 119 119 119 119 119 119 119 119 119 120 120 120 120 120 120 119 118 118 116 115 114 113 112 111 110 109 109 109 109 110 110 110 109 109 108 108 107 106 106 105 104 103 103 101 100 100 99 98 98 97 96 95 94 93 92 90 89 87 86 85 84 84 83 83 83 83 83 83 83 83 83 83 83 83 84 84 84
118 118 119 119 119 120 120 120 120 120 120 120 120 120 120 120 120 120 121 121 121 121 121 121 121 121 120 119 118 117 116 115 114 113 113 112 111 111 112 112 112 111 110 110 110 109 108 107 107 106 105 104 103 102 102 101 100 99 98 97 95 94 92 90 89 87 86 86 85 85 85 85 85 85 85 85 85 84 84 84 84 84 84 85 85 85
118 118 118 119 119 120 120 120 121 121 121 121 121 121 121 121 121 121 122 122 122 122 122 122 122 122 121 121 121 120 119 118 117 117 116 115 114 114 115 115 114 113 113 112 112 111 111 110 109 108 107 107 106 105 104 103 101 100 99 97 95 93 91 90 88 87 87 87 87 87 87 86 86 86 86 86 85 85 85 85 85 85 85 86 86 87
117 117 118 118 119 119 120 120 121 121 122 122 122 123 123 123 123 123 123 123 123 122 123 123 123 123 122 122 121 121 120 120 120 119 118 117 117 117 117 117 116 116 115 115 114 114 113 113 112 111 110 109 108 106 105 104 102 101 99 97 95 93 91 90 89 88 88 88 88 88 88 88 87 87 86 86 86 86 86 86 86 86 86 87 87 88
117 117 117 118 118 118 119 119 120 121 121 122 122 123 124 124 124 124 124 124 124 124 124 124 123 123 123 122 121 121 121 121 121 120 119 119 119 119 119 119 118 118 118 117 116 115 115 115 114 113 112 110 109 107 106 104 103 101 99 97 95 94 92 91 90 90 90 90 90 89 89 89 88 87 87 87 87 87 87 87 87 87 87 88 88 89
116 117 117 117 117 118 118 119 119 120 120 121 122 122 123 124 124 125 125 125 126 125 125 125 125 124 124 123 122 121 121 122 121 121 120 120 120 120 120 120 119 119 119 118 117 116 116 116 115 114 113 111 109 108 106 105 103 101 100 98 96 95 94 93 92 91 91 91 90 90 90 89 89 88 87 87 87 87 87 88 88 88 89 89 90 90
117 117 117 117 117 118 118 118 119 119 120 120 121 121 122 123 124 125 125 126 126 127 127 127 127 126 126 125 124 123 123 122 122 122 121 120 120 121 121 120 120 120 120 119 118 117 117 116 116 115 113 112 110 109 107 105 104 102 100 98 97 96 95 94 93 92 92 91 91 90 90 90 89 89 88 88 88 88 88 89 89 90 90 91 91 91
116 116 116 117 117 117 118 118 118 119 119 119 120 120 121 121 122 123 124 125 126 126 127 127 128 128 127 127 126 125 124 123 123 122 122 121 121 121 121 121 120 120 120 119 119 118 117 117 116 115 114 113 111 109 108 106 104 102 101 99 97 96 95 94 93 92 92 91 91 90 90 90 90 89 89 89 89 89 90 90 91 91 92 92 92 92
111 112 113 114 115 116 117 117 118 118 118 119 119 120 120 120 121 122 122 123 124 125 126 126 127 128 128 128 128 127 126 125 124 123 123 122 122 122 122 121 121 120 120 120 119 118 118 117 116 115 114 113 111 110 108 106 104 102 101 99 97 96 95 94 93 92 91 91 91 91 91 90 90 90 90 90 90 91 91 92 92 93 93 93 93 92
105 106 108 109 110 112 113 114 115 116 117 117 118 118 119 119 120 120 121 122 122 123 124 124 125 126 126 127 128 127 127 126 125 124 124 123 122 122 122 121 121 121 120 119 119 118 117 117 116 115 113 112 110 109 108 106 104 102 100 99 97 96 95 94 93 92 91 91 91 91 91 91 91 91 92 92 92 92 93 94 94 94 94 94 93 92
101 101 102 103 104 105 107 108 110 111 113 114 115 116 117 117 118 118 119 120 120 121 122 122 123 124 124 125 125 126 126 126 125 125 124 124 123 122 122 122 121 121 119 119 118 118 117 116 115 114 112 111 109 108 106 105 103 101 100 98 97 96 95 94 93 92 91 91 91 91 92 92 92 93 93 94 94 95 95 95 95 95 95 94 93 91
101 101 101 101 101 102 103 104 105 106 108 109 110 112 113 114 115 116 117 118 118 119 119 120 121 121 122 122 123 123 124 124 124 124 124 123 123 122 122 121 121 120 119 118 117 117 116 115 113 112 111 110 108 107 105 104 102 101 100 99 97 96 95 94 93 92 92 92 92 92 93 93 94 95 95 96 96 96 96 96 96 96 95 93 91 88
103 103 102 102 102 102 102 102 102 103 104 104 106 107 108 109 111 112 113 114 115 116 117 117 118 118 119 119 120 121 121 122 122 122 122 122 122 121 121 120 120 120 119 118 117 116 115 114 112 111 110 108 107 106 105 103 102 101 100 99 98 97 96 95 94 93 93 93 93 94 94 95 96 97 97 98 98 98 97 97 96 95 94 92 89 85
105 105 105 105 104 104 103 103 103 103 103 103 103 104 105 106 107 108 109 110 111 112 113 114 115 116 116 117 117 118 118 119 119 119 120 120 120 120 119 119 119 118 118 117 116 115 114 113 112 111 109 107 106 105 104 104 103 102 101 99 98 98 97 96 96 95 95 95 95 96 96 97 98 98 99 99 99 99 98 97 96 94 92 89 86 82
107 107 107 107 107 106 106 105 105 105 104 104 104 104 104 105 105 106 106 107 108 109 110 111 112 113 113 114 115 115 116 116 116 117 117 117 118 118 118 118 118 117 117 116 116 115 114 113 112 111 109 107 106 105 105 104 104 103 102 100 100 100 100 99 98 98 97 97 98 98 99 99 100 100 100 100 99 99 97 96 94 92 89 86 82 79
109 109 109 109 109 108 108 108 107 107 107 107 106 106 106 106 106 105 105 105 106 106 107 107 108 109 110 111 112 112 113 113 114 114 114 115 115 116 116 116 117 117 117 116 116 116 115 114 113 112 110 108 107 106 106 106 106 105 104 103 103 102 102 102 101 100 100 100 100 101 101 101 101 101 101 100 99 98 96 94 92 89 86 83 79 75
109 110 110 110 110 110 110 110 109 109 109 109 109 109 109 108 108 107 107 106 106 106 105 105 106 106 107 108 109 109 110 110 111 111 112 113 113 114 115 115 116 116 116 117 117 117 116 116 115 114 112 110 109 108 108 108 109 108 107 106 106 105 105 104 104 103 103 102 102 102 102 102 102 102 101 99 98 95 93 91 88 86 83 80 76 72
110 110 110 110 110 111 111 111 111 111 111 111 111 111 111 110 110 109 109 109 108 107 107 106 106 105 105 105 106 106 107 108 108 109 110 111 112 113 113 114 115 115 115 116 117 117 117 117 116 115 114 112 111 110 111 111 111 111 110 109 109 108 108 107 106 105 105 104 103 103 102 102 101 101 99 98 95 93 90 88 85 82 79 76 73 70
110 110 110 111 111 111 112 112 112 112 112 112 112 112 112 112 112 111 111 111 110 110 109 108 107 107 106 105 105 104 104 105 106 107 109 110 111 111 112 113 114 114 115 115 116 117 117 117 117 116 114 113 112 112 112 113 113 113 112 111 110 109 108 107 106 105 105 104 103 102 101 100 100 99 98 96 93 90 87 85 82 79 76 73 70 67
110 110 110 111 111 111 112 112 112 112 113 113 113 113 113 113 113 113 112 112 112 112 111 110 110 109 109 108 106 105 105 104 105 106 107 108 108 109 111 112 112 113 114 115 115 116 116 116 116 116 114 114 113 113 113 113 113 113 112 111 110 109 108 106 105 104 103 102 102 101 99 99 98 98 97 95 92 88 85 82 79 76 74 71 68 65
109 109 110 110 110 110 111 111 111 112 112 113 113 114 114 114 114 114 113 113 113 113 113 112 111 111 111 110 109 107 107 106 106 106 106 106 106 107 108 109 110 111 112 113 114 115 115 115 115 114 114 114 113 113 112 112 112 112 111 110 109 108 107 106 104 103 101 101 100 99 98 97 97 96 95 93 90 86 83 79 76 74 71 69 66 64
108 108 108 109 109 109 110 110 110 111 112 112 113 113 113 113 113 114 114 114 114 114 113 113 113 112 112 111 110 109 109 108 108 107 107 106 106 106 106 107 108 109 110 111 112 113 113 113 112 112 111 111 111 111 110 110 110 110 109 108 107 106 105 104 103 101 100 99 98 97 96 96 95 94 93 91 88 84 81 77 74 71 69 67 65 64
105 106 106 107 107 108 108 108 109 109 110 111 111 112 112 112 113 113 114 114 114 114 114 114 113 113 113 112 111 110 110 110 109 109 108 108 107 107 107 107 107 107 107 108 109 110 110 110 110 109 108 107 107 107 107 107 107 107 106 105 104 104 103 102 101 99 98 97 96 95 94 93 92 91 90 88 85 82 78 75 72 70 68 66 65 64
103 103 104 104 105 105 106 106 106 107 108 108 109 110 110 111 111 112 112 112 113 113 113 113 113 113 113 112 111 111 111 111 111 111 110 110 109 109 109 108 107 107 107 107 107 107 108 108 107 106 105 104 103 103 103 103 103 103 102 102 101 100 100 99 98 97 96 95 94 92 92 90 89 87 86 85 83 80 77 74 72 70 68 66 65 64
100 100 101 101 102 103 103 104 104 105 105 106 107 107 108 109 109 110 110 111 111 112 112 112 112 112 112 112 111 111 111 111 111 111 111 111 111 111 111 110 109 109 109 108 108 107 107 106 106 105 103 101 100 100 100 100 99 99 99 98 97 96 96 95 95 94 93 92 91 90 89 88 86 85 83 82 81 78 76 74 72 70 69 67 66 65
Wind_Direction
267 267 267 268 268 268 268 268 268 268 268 268 269 269 270 271 271 271 272 272 273 273 274 275 276 276 277 278 278 279 280 280 281 281 282 283 283 283 283 283 283 284 284 284 284 284 284 284 284 285 286 286 287 288 289 290 291 292 293 295 296 298 299 300 300 300 299 297 296 295 295 295 295 296 296 297 297 298 299 301 303 305 307 310 313 316
267 267 267 267 267 267 267 267 267 267 267 267 267 268 268 269 270 271 271 272 273 273 274 275 275 276 277 277 278 279 280 280 281 281 282 282 282 283 282 282 283 283 283 283 283 283 283 283 283 284 284 285 286 287 288 289 290 291 293 294 295 297 298 298 299 299 298 297 295 294 294 294 295 295 296 296 297 298 299 301 303 305 307 310 313 316
266 266 266 266 266 266 267 267 267 267 266 266 267 267 268 268 269 270 271 272 272 273 274 274 275 276 276 277 278 278 279 279 280 280 281 281 282 282 281 281 282 282 282 282 282 282 282 282 282 283 283 284 285 286 287 288 289 291 292 293 295 296 297 297 298 298 297 296 295 294 294 294 294 294 295 296 297 298 299 301 303 305 308 311 313 316
265 265 265 265 266 266 266 267 267 267 267 267 267 267 268 268 269 269 270 271 272 272 273 274 274 275 275 276 276 277 278 278 279 279 280 280 281 280 280 280 280 281 281 281 281 281 281 281 281 282 282 283 284 285 286 287 288 290 291 292 294 295 296 296 297 296 296 295 294 293 293 293 293 294 295 295 296 298 299 301 303 305 308 311 313 315
264 264 264 265 265 265 266 266 267 267 267 267 267 268 268 268 269 269 270 270 271 271 272 272 273 273 274 274 275 275 276 276 277 278 279 279 279 279 279 279 279 280 280 280 280 280 280 280 280 281 281 282 283 284 285 286 288 289 290 292 293 294 295 295 295 295 295 294 293 293 292 292 293 293 294 295 296 297 299 301 303 306 308 311 313 315
263 263 264 264 264 265 265 266 266 267 267 267 267 268 268 268 268 269 269 269 270 270 271 271 272 272 273 273 273 274 274 275 276 276 277 278 278 277 277 277 278 278 279 279 279 279 279 279 279 279 280 281 282 283 285 286 287 288 290 291 292 293 294 294 294 294 293 293 292 292 291 292 292 293 294 295 296 297 299 301 303 306 308 310 312 314
262 262 263 263 263 264 264 265 265 266 266 267 267 267 267 268 268 268 268 269 269 270 270 271 271 271 272 272 272 273 273 274 275 275 276 276 276 276 276 277 277 277 278 277 277 277 277 278 278 279 279 280 281 283 284 285 287 288 289 290 292 292 293 293 293 293 292 292 291 291 291 291 291 292 293 294 296 297 299 301 303 306 308 310 312 313
261 261 262 262 263 263 263 264 265 265 266 266 266 267 267 267 267 267 268 268 268 269 269 270 270 271 271 272 272 272 273 273 274 274 275 275 275 275 275 276 276 277 277 276 276 276 276 276 277 278 279 280 281 282 283 285 286 287 289 290 291 291 292 292 292 292 291 291 290 290 290 290 291 292 293 294 295 297 299 301 303 306 308 310 311 312
260 261 261 262 262 263 263 264 264 265 265 265 266 266 266 267 267 267 267 268 268 268 269 269 270 270 271 271 272 272 272 273 273 274 274 274 274 275 275 275 276 276 275 275 275 275 275 275 276 277 278 279 281 282 283 284 285 287 288 289 290 290 291 291 291 291 290 290 290 290 290 290 291 292 293 294 295 297 299 301 303 306 308 309 311 312
259 260 261 262 262 263 263 264 264 264 265 265 265 266 266 266 267 267 267 267 268 268 268 269 269 270 270 271 271 272 272 272 273 273 273 274 274 274 275 275 275 275 274 274 273 273 274 275 276 277 278 279 280 281 282 283 285 286 287 288 289 289 290 290 290 289 289 289 289 289 289 289 290 291 292 294 295 297 299 301 303 305 307 309 310 311
259 259 260 261 262 263 263 263 264 264 264 265 265 266 266 266 266 267 267 267 268 268 268 268 269 269 270 270 271 271 272 272 272 273 273 273 274 274 274 274 274 274 273 273 272 273 273 274 275 276 277 278 279 280 281 283 284 285 286 287 288 288 288 288 288 288 288 288 288 288 288 289 290 291 292 293 295 297 299 301 303 305 307 308 309 310
258 259 259 260 261 262 262 263 263 263 264 264 264 265 265 266 266 266 267 267 267 268 268 268 269 269 270 270 271 271 271 272 272 272 273 273 273 273 274 274 273 273 272 272 272 272 273 274 275 276 277 278 279 280 281 282 283 285 285 286 287 287 287 287 287 287 287 287 287 287 288 288 289 291 292 293 295 297 299 301 303 304 306 307 308 309
258 258 258 259 260 260 261 262 262 263 263 263 263 264 264 265 266 266 266 267 267 268 268 268 269 269 269 270 270 270 271 271 272 272 272 272 273 273 273 273 272 272 271 271 271 272 273 274 274 275 276 277 278 279 280 281 283 284 285 285 285 286 286 286 286 286 286 286 286 287 287 288 289 290 292 293 295 297 299 301 302 304 305 306 307 309
258 258 258 258 258 259 260 260 261 261 262 262 262 263 263 264 264 265 266 266 267 267 268 268 268 269 269 269 270 270 270 271 271 271 272 272 272 272 272 272 271 271 271 271 271 272 273 273 274 275 275 276 277 278 280 281 282 283 284 284 284 284 284 284 284 284 285 285 285 286 287 288 289 290 292 293 295 297 299 301 302 303 304 305 307 308
258 258 257 257 257 258 258 259 260 260 261 261 261 262 262 262 263 263 264 265 266 266 267 267 268 268 268 269 269 269 270 270 271 271 271 271 271 271 271 271 271 271 271 271 271 271 272 273 273 274 275 275 277 278 279 280 281 282 283 283 283 283 283 283 283 283 284 284 285 285 286 288 289 290 292 293 295 297 299 300 301 302 303 305 306 307
257 257 257 257 257 257 257 257 258 259 260 260 261 261 261 261 262 262 262 263 264 265 265 266 266 267 268 268 268 269 269 270 270 270 270 271 271 271 271 270 270 270 270 270 271 271 272 272 273 273 274 275 276 277 278 279 280 281 281 282 282 282 282 282 282 282 283 283 284 285 286 287 289 290 292 293 295 297 298 299 300 301 303 304 305 307
257 257 257 257 256 256 256 256 257 258 259 260 260 261 261 261 261 261 262 262 263 263 264 264 265 266 266 267 268 268 268 269 269 269 270 270 270 270 270 270 270 270 270 270 270 270 271 271 272 273 273 274 275 277 278 279 279 280 280 281 281 281 281 281 281 281 282 283 283 284 286 287 288 290 292 294 295 297 298 299 300 301 302 303 304 306
257 257 257 256 256 256 256 256 256 256 257 258 259 260 260 261 261 261 261 262 262 262 263 263 264 265 265 266 267 267 268 268 268 269 269 269 269 269 269 269 269 269 269 269 269 270 270 271 271 272 273 274 275 276 277 278 278 279 279 279 279 279 280 280 280 280 281 282 283 284 285 287 288 290 292 293 295 296 297 298 299 300 301 302 304 304
257 257 257 256 256 257 256 256 256 256 256 257 258 259 260 260 261 261 261 261 262 262 262 263 263 264 264 265 266 266 267 267 267 268 268 268 269 269 269 269 268 268 268 269 269 269 270 270 271 272 272 273 274 275 276 277 277 278 278 278 278 278 279 279 279 280 280 281 282 284 285 287 288 290 291 293 294 295 296 297 298 299 300 302 302 303
257 257 257 257 257 257 257 257 256 256 256 256 257 258 259 259 260 260 261 261 261 262 262 262 263 263 264 264 265 265 266 266 267 267 267 268 268 268 268 268 268 268 268 268 268 269 269 270 270 271 272 273 274 274 275 276 276 276 277 277 277 277 278 278 279 279 280 281 282 284 285 287 288 290 291 292 294 295 295 297 298 299 300 300 301 302
257 257 257 257 257 257 257 257 257 257 257 256 257 257 257 258 259 260 260 261 261 261 261 262 262 262 263 263 264 264 265 265 265 266 266 267 267 267 267 267 267 267 267 267 268 268 269 269 270 270 271 272 273 273 274 275 275 275 276 276 276 277 277 278 278 279 280 281 282 284 285 287 288 289 291 292 293 294 295 296 297 298 299 300 300 301
258 258 258 257 257 257 257 257 257 257 257 257 256 256 257 257 258 259 259 260 260 261 261 261 261 262 262 262 263 263 264 264 264 265 265 266 266 266 266 266 266 266 266 267 267 268 268 268 269 270 270 271 272 273 273 274 274 274 275 275 276 276 277 277 278 279 280 281 283 284 286 287 288 289 290 291 292 293 294 295 296 297 298 299 299 300
258 258 258 258 258 257 257 257 258 258 257 257 257 257 257 257 257 258 258 259 260 260 260 261 261 262 262 262 262 263 263 263 263 264 264 264 265 265 266 266 266 266 266 266 267 267 268 268 269 269 270 271 271 272 272 273 273 274 274 275 275 275 276 277 278 279 280 282 283 284 286 287 288 289 290 291 292 293 293 294 295 296 297 298 298 299
259 259 259 259 259 258 258 258 258 258 258 258 258 257 257 257 257 258 258 259 259 260 260 261 261 261 261 262 262 262 262 262 262 263 263 263 263 264 265 265 265 265 265 266 266 267 267 268 268 269 270 270 271 271 272 272 273 273 274 274 275 275 276 277 278 279 281 282 284 285 286 287 287 288 289 290 291 292 293 294 294 295 296 296 297 298
260 260 260 260 259 259 259 259 258 258 258 258 258 258 258 258 258 258 258 258 259 259 259 260 260 260 261 261 261 261 262 262 262 262 262 262 262 263 264 264 264 265 265 266 267 267 267 268 268 269 270 270 270 271 271 272 273 273 274 274 275 276 277 278 279 281 282 283 284 285 286 286 287 287 288 289 290 291 292 292 293 294 294 295 296 297
260 260 260 260 260 259 259 259 259 259 259 259 259 259 258 258 258 258 258 258 258 258 259 259 259 260 260 261 261 261 261 262 262 262 262 262 262 263 263 264 264 264 265 266 266 267 267 268 268 269 270 270 270 271 271 272 272 273 274 275 276 277 278 279 281 282 283 284 284 284 285 285 286 286 287 288 289 290 291 291 292 292 293 294 295 296
260 260 260 260 260 259 259 259 259 259 259 259 259 259 259 259 258 258 258 258 258 259 258 259 259 260 260 260 260 261 261 262 262 262 262 262 262 262 263 264 264 264 265 266 266 267 267 268 268 269 270 270 271 271 271 272 273 273 274 275 276 278 279 280 281 282 282 283 283 283 283 284 285 286 286 287 288 289 289 290 291 291 292 293 294 295
260 260 260 260 260 259 259 259 259 259 259 259 259 259 259 258 258 258 258 259 259 259 259 259 259 260 260 260 260 261 261 261 262 262 262 262 262 262 263 264 264 265 265 266 266 267 267 268 268 269 270 270 271 271 272 272 273 274 275 276 277 278 279 280 280 281 281 281 281 282 282 283 284 285 285 286 287 287 288 289 289 290 291 292 293 295
261 261 260 260 260 259 259 259 259 259 259 259 259 259 259 258 258 258 258 259 259 259 259 259 260 260 260 260 260 261 261 261 262 262 262 262 262 263 264 264 265 265 266 266 267 267 268 268 269 269 270 270 271 272 272 273 274 274 275 276 277 278 278 279 279 279 279 279 280 280 281 282 283 283 284 285 286 286 287 288 288 289 290 291 292 294
261 261 261 260 260 260 260 259 259 259 259 259 259 259 259 258 258 258 259 259 259 259 259 259 260 260 260 260 261 261 261 261 262 262 262 262 262 263 264 264 265 265 266 266 267 267 268 269 269 270 270 271 271 272 273 273 274 275 275 276 277 277 277 277 277 278 278 278 279 280 280 281 282 282 283 284 284 285 286 286 287 288 289 290 292 293
261 261 261 261 261 260 260 260 259 259 259 259 259 258 258 258 258 258 258 259 259 259 259 259 260 260 260 260 261 261 261 261 262 262 262 262 262 263 264 264 265 266 266 267 267 268 268 269 270 270 271 271 272 273 273 274 274 275 275 276 276 276 276 276 277 277 277 278 278 279 279 280 281 281 282 282 283 284 284 285 286 287 288 290 291 293
262 261 261 261 261 261 261 260 260 260 259 259 259 258 258 258 258 258 258 258 258 259 259 259 259 260 260 260 260 261 261 262 262 262 262 262 262 263 264 264 265 266 266 267 267 268 268 269 270 271 271 272 272 273 273 274 274 274 275 275 275 275 276 276 276 276 276 277 277 278 279 279 280 280 281 281 282 283 283 284 285 286 287 289 290 292
262 262 262 261 261 261 261 261 260 260 260 260 259 259 259 258 258 258 258 258 258 258 258 259 259 259 260 260 260 260 261 261 262 262 262 262 262 263 264 264 265 265 266 267 267 267 268 269 269 270 271 271 272 272 272 273 273 274 274 274 274 274 275 275 275 275 276 276 277 277 278 278 279 279 280 280 281 282 282 283 284 285 287 288 290 291
263 262 262 262 261 261 261 261 261 260 260 260 260 259 259 259 258 258 258 258 258 258 258 258 259 259 259 259 260 260 260 261 261 262 262 262 262 263 263 264 264 265 265 266 267 267 268 268 269 269 270 270 271 271 272 272 272 273 273 273 273 273 274 274 274 275 275 275 276 276 277 277 278 278 279 279 280 281 281 282 284 285 286 288 289 291
263 263 263 262 262 261 261 261 261 261 260 260 260 260 260 259 259 259 259 258 258 258 258 258 258 258 259 259 259 259 260 260 261 261 261 261 262 262 263 263 264 264 265 265 266 266 267 267 268 268 269 270 270 271 271 271 272 272 272 272 272 272 273 273 273 274 274 274 275 275 276 276 277 277 278 278 279 280 281 282 283 284 286 287 289 290
264 264 263 263 263 262 262 261 261 261 261 260 260 260 260 260 260 259 259 259 259 259 258 258 258 258 258 259 259 259 259 260 260 260 261 261 261 262 262 263 263 264 264 265 265 266 266 267 267 268 268 269 269 270 270 271 271 271 271 271 271 271 271 272 272 272 273 273 273 274 274 275 276 276 277 277 278 279 280 281 283 284 285 287 288 289
265 264 264 264 263 263 262 262 262 261 261 261 261 260 260 260 260 260 260 259 259 259 259 259 259 259 259 259 258 259 259 259 259 260 260 260 261 261 261 262 263 263 263 264 264 265 265 266 266 267 268 268 268 269 269 270 270 270 270 270 270 270 270 271 271 271 271 272 272 273 273 274 274 275 276 277 278 279 280 281 282 284 285 286 287 289
265 265 264 264 264 263 263 263 262 262 261 261 261 261 260 260 260 260 260 260 259 259 259 259 259 259 259 259 259 259 259 259 259 259 259 260 260 260 261 261 262 262 263 263 263 264 264 265 265 266 266 267 267 268 268 268 268 268 269 269 269 269 269 269 269 270 270 270 271 271 272 273 273 274 275 276 277 279 280 281 282 283 284 285 287 288
265 265 264 264 264 264 263 263 263 262 262 262 261 261 261 261 260 260 260 260 260 259 259 259 259 259 259 259 259 259 259 259 259 259 259 259 259 260 260 260 261 261 262 262 263 263 263 264 264 265 265 265 266 266 267 267 267 267 267 268 268 268 268 268 268 268 269 269 270 270 271 272 272 273 274 276 277 278 279 280 281 283 284 285 286 287
265 265 264 264 264 264 263 263 263 263 262 262 262 262 261 261 261 260 260 260 260 259 259 259 259 259 259 259 259 259 259 258 259 259 259 259 259 259 259 260 260 260 261 261 262 262 262 262 263 263 263 264 264 264 265 265 265 265 266 266 266 266 267 267 267 267 268 268 269 269 270 271 272 273 274 275 276 277 279 280 281 282 283 284 285 285
264 264 264 264 264 263 263 263 263 263 262 262 262 262 261 261 261 260 260 260 260 259 259 259 259 259 259 259 259 259 259 258 258 258 258 258 258 258 259 259 259 259 260 260 261 261 261 261 261 262 262 262 262 263 263 263 264 264 264 264 264 265 266 266 266 266 267 267 268 269 270 270 271 272 274 275 276 277 278 279 280 281 282 283 283 284
264 264 264 264 263 263 263 263 263 262 262 262 262 261 261 261 261 260 260 260 260 260 259 259 259 259 259 259 259 259 259 259 258 258 258 258 258 258 258 258 258 258 259 259 259 260 260 260 260 260 260 260 260 261 261 262 262 263 263 263 263 264 265 265 266 266 267 267 268 268 269 270 271 272 273 274 275 276 277 278 279 280 281 281 282 282
264 264 264 263 263 263 263 263 263 262 262 262 261 261 261 261 261 260 260 260 260 260 259 259 259 259 259 259 258 258 258 258 258 258 258 258 258 258 258 258 258 258 258 258 258 259 259 260 259 259 259 259 259 259 259 260 261 262 262 263 263 264 264 265 266 266 267 267 268 268 269 270 271 272 273 274 275 276 277 277 278 279 279 280 280 280
265 264 264 264 263 263 263 263 262 262 262 262 261 261 261 261 261 260 260 260 260 260 260 259 259 259 259 258 258 258 258 258 258 258 258 258 257 257 257 257 257 257 258 258 258 258 259 259 259 259 259 259 259 258 259 260 261 261 262 263 263 263 264 265 266 266 267 267 268 269 269 270 271 272 273 273 274 275 276 276 277 277 278 278 278 278
265 265 264 264 263 263 263 262 262 262 262 262 261 261 261 261 261 260 260 260 260 260 259 259 259 259 259 258 258 258 258 258 257 257 257 257 257 257 257 257 257 257 257 257 258 258 258 259 259 259 259 259 259 258 259 259 260 261 262 263 263 264 264 265 266 266 267 267 268 269 269 270 271 271 272 273 274 274 275 275 276 276 276 276 276 276
266 265 265 264 264 263 263 263 262 262 262 262 261 261 261 261 261 260 260 260 260 259 259 259 259 259 259 258 258 258 258 258 257 257 256 256 256 256 256 256 256 256 257 257 257 258 258 258 259 259 259 259 259 259 259 259 260 261 262 263 263 264 264 265 266 266 267 267 268 268 269 270 270 271 272 272 273 273 274 274 274 274 274 274 274 274
266 266 265 265 264 264 263 263 263 262 262 262 261 261 261 261 260 260 260 260 260 259 259 259 259 259 258 258 258 258 258 257 257 257 256 256 256 256 256 256 256 256 256 256 256 257 257 258 258 259 259 259 259 259 259 259 260 261 262 262 263 263 264 265 265 266 266 267 267 268 268 269 270 270 271 272 272 272 272 272 272 272 272 272 273 272
266 266 265 265 264 264 264 263 263 262 262 262 261 261 261 261 260 260 260 260 260 259 259 259 259 259 258 258 258 258 257 257 257 257 257 256 256 256 256 255 255 255 255 255 256 256 256 257 257 258 258 258 259 259 259 259 259 260 261 262 262 263 263 264 264 265 265 266 266 267 268 268 269 269 270 270 271 271 271 271 271 271 271 271 271 271
266 265 265 265 264 264 264 263 263 263 262 262 262 261 261 261 260 260 260 260 260 259 259 259 259 259 258 258 258 257 257 257 257 257 257 256 256 256 256 255 255 255 255 255 255 255 256 256 256 257 257 257 258 258 258 258 259 259 260 260 261 262 262 263 263 264 264 265 265 266 266 267 267 268 268 269 269 269 269 269 269 269 269 270 270 270
265 265 265 264 264 264 264 263 263 263 262 262 262 261 261 261 260 260 260 260 259 259 259 259 259 259 258 258 258 257 257 257 256 256 256 256 256 256 256 255 255 255 255 255 255 255 255 255 256 256 256 256 256 257 257 258 258 258 259 259 260 260 261 262 262 263 263 264 264 265 265 266 266 266 267 267 268 268 268 268 268 268 268 269 269 270
265 265 265 264 264 264 263 263 263 263 262 262 261 261 261 261 260 260 260 259 259 259 259 259 258 258 258 258 258 257 257 256 256 256 256 255 255 255 255 255 255 255 255 255 255 255 255 255 255 256 256 256 256 256 256 257 257 258 258 259 259 259 260 260 261 261 262 262 263 263 264 264 264 265 265 266 266 267 267 267 267 267 268 268 269 269
Height
10620 10620 10621 10621 10622 10623 10623 10625 10626 10627 10626 10626 10625 10624 10623 10623 10623 10623 10624 10625 10625 10626 10626 10627 10628 10629 10630 10630 10630 10631 10633 10635 10636 10636 10638 10638 10639 10640 10639 10639 10638 10638 10638 10638 10637 10636 10636 10635 10635 10635 10635 10635 10634 10634 10633 10632 10631 10631 10630 10630 10630 10630 10630 10630 10630 10629 10628 10626 10626 10625 10624 10623 10622 10621 10621 10621 10620 10619 10618 10618 10616 10616 10614 10613 10611 10609
10612 10613 10615 10616 10616 10616 10616 10618 10620 10621 10621 10621 10620 10619 10618 10618 10617 10618 10618 10619 10620 10620 10621 10621 10622 10623 10624 10625 10625 10626 10626 10628 10629 10630 10631 10633 10633 10634 10634 10634 10633 10633 10633 10633 10633 10632 10631 10631 10631 10630 10630 10630 10630 10630 10629 10628 10628 10627 10626 10626 10626 10626 10626 10625 10625 10625 10625 10623 10622 10621 10620 10620 10618 10618 10618 10616 10616 10615 10615 10614 10613 10612 10611 10609 10608 10606
10606 10607 10608 10609 10610 10610 10610 10611 10613 10614 10615 10615 10615 10614 10614 10613 10613 10613 10613 10614 10614 10615 10615 10616 10616 10618 10618 10620 10620 10621 10621 10622 10623 10625 10626 10627 10628 10628 10629 10629 10629 10629 10629 10629 10628 10628 10627 10626 10626 10626 10625 10625 10625 10625 10625 10624 10623 10623 10622 10621 10621 10621 10621 10621 10620 10620 10619 10619 10618 10617 10616 10615 10615 10614 10614 10613 10612 10611 10611 10610 10610 10608 10607 10606 10604 10603
10600 10601 10601 10602 10603 10604 10605 10605 10606 10607 10608 10608 10609 10609 10609 10608 10608 10608 10608 10609 10609 10610 10610 10611 10611 10613 10613 10615 10615 10616 10616 10617 10618 10619 10620 10621 10622 10623 10623 10624 10624 10625 10625 10625 10624 10623 10622 10622 10621 10621 10621 10621 10620 10620 10620 10620 10619 10618 10618 10618 10617 10617 10617 10617 10616 10616 10615 10615 10615 10613 10612 10611 10611 10610 10610 10610 10608 10607 10606 10606 10606 10605 10603 10602 10601 10600
10593 10594 10594 10595 10596 10597 10598 10599 10600 10600 10601 10601 10602 10603 10603 10603 10603 10603 10603 10604 10604 10605 10605 10605 10606 10608 10609 10610 10611 10611 10611 10612 10613 10613 10615 10616 10616 10618 10618 10618 10619 10620 10620 10620 10619 10618 10618 10617 10617 10616 10616 10616 10616 10616 10615 10615 10615 10614 10614 10613 10613 10613 10613 10613 10612 10611 10611 10611 10610 10609 10608 10607 10606 10606 10606 10606 10605 10603 10603 10602 10602 10601 10600 10599 10598 10596
10586 10586 10587 10589 10590 10590 10591 10592 10593 10593 10594 10595 10595 10596 10597 10597 10598 10598 10598 10598 10598 10599 10599 10600 10601 10603 10604 10605 10606 10606 10606 10607 10608 10608 10610 10610 10611 10612 10612 10613 10614 10615 10615 10615 10614 10613 10612 10612 10612 10612 10611 10611 10611 10611 10611 10611 10610 10610 10610 10609 10609 10608 10608 10608 10608 10607 10607 10606 10606 10605 10604 10603 10603 10603 10602 10602 10601 10600 10598 10598 10598 10598 10596 10595 10594 10593
10578 10579 10580 10581 10583 10583 10585 10586 10586 10586 10587 10587 10588 10588 10590 10591 10591 10591 10591 10592 10593 10593 10593 10595 10595 10596 10598 10600 10600 10601 10601 10602 10602 10603 10604 10605 10606 10606 10606 10607 10608 10609 10610 10609 10608 10608 10607 10607 10607 10607 10607 10607 10607 10606 10606 10606 10606 10605 10605 10605 10604 10604 10604 10603 10603 10603 10602 10602 10601 10601 10600 10600 10600 10600 10598 10598 10596 10595 10595 10595 10594 10593 10593 10591 10590 10589
10572 10572 10573 10575 10575 10576 10577 10578 10579 10580 10580 10580 10580 10581 10582 10583 10584 10585 10585 10586 10586 10587 10588 10588 10590 10590 10592 10593 10594 10595 10596 10596 10597 10598 10598 10600 10600 10601 10601 10602 10603 10603 10604 10603 10603 10602 10601 10601 10601 10601 10601 10602 10602 10602 10602 10601 10601 10601 10600 10600 10600 10600 10599 10599 10599 10598 10598 10598 10597 10596 10596 10596 10596 10595 10595 10594 10593 10591 10591 10590 10590 10590 10589 10588 10586 10585
10565 10565 10566 10566 10568 10569 10570 10570 10571 10573 10573 10573 10573 10574 10575 10575 10576 10577 10578 10579 10580 10581 10581 10582 10583 10584 10585 10586 10588 10588 10589 10590 10591 10591 10593 10593 10594 10595 10595 10596 10597 10598 10598 10598 10597 10596 10596 10596 10596 10596 10596 10596 10597 10597 10597 10596 10596 10596 10596 10595 10595 10595 10595 10595 10594 10594 10593 10593 10593 10592 10591 10591 10591 10591 10591 10591 10590 10588 10587 10586 10586 10586 10585 10584 10583 10581
10558 10559 10559 10559 10560 10561 10562 10562 10563 10565 10566 10566 10566 10566 10567 10568 10569 10570 10570 10571 10572 10573 10575 10576 10576 10576 10578 10579 10581 10582 10583 10583 10585 10585 10586 10587 10588 10588 10590 10590 10591 10591 10592 10591 10591 10591 10591 10591 10591 10591 10591 10591 10591 10592 10591 10591 10591 10591 10591 10591 10590 10590 10590 10590 10590 10589 10589 10589 10588 10588 10587 10587 10587 10587 10586 10586 10586 10584 10583 10583 10583 10582 10581 10580 10579 10578
10551 10553 10553 10553 10553 10553 10555 10555 10555 10556 10558 10560 10560 10559 10560 10561 10561 10562 10563 10563 10565 10566 10567 10568 10569 10570 10571 10572 10573 10575 10576 10577 10578 10579 10580 10581 10581 10583 10583 10584 10585 10585 10586 10585 10585 10585 10585 10585 10586 10586 10586 10586 10586 10586 10586 10586 10586 10586 10586 10586 10586 10586 10585 10585 10585 10585 10585 10584 10584 10583 10583 10583 10583 10582 10582 10582 10581 10580 10580 10579 10578 10578 10577 10576 10575 10574
10545 10546 10547 10547 10546 10546 10547 10548 10548 10550 10551 10553 10553 10552 10552 10553 10554 10555 10555 10555 10556 10558 10559 10560 10561 10563 10564 10565 10566 10567 10569 10570 10571 10571 10573 10574 10575 10576 10577 10578 10578 10579 10580 10579 10579 10579 10580 10580 10580 10581 10581 10581 10581 10581 10581 10581 10581 10581 10581 10581 10581 10581 10581 10580 10580 10580 10580 10580 10579 10579 10578 10578 10578 10578 10577 10577 10577 10576 10575 10575 10575 10574 10573 10573 10571 10570
10536 10538 10540 10541 10541 10541 10540 10541 10542 10543 10545 10545 10546 10545 10545 10545 10546 10548 10548 10548 10548 10550 10551 10553 10553 10555 10556 10558 10559 10560 10561 10563 10563 10565 10566 10567 10568 10570 10571 10571 10572 10573 10573 10573 10573 10573 10573 10574 10575 10575 10575 10575 10576 10576 10576 10576 10576 10577 10577 10577 10577 10576 10576 10576 10576 10575 10575 10575 10575 10575 10574 10574 10574 10574 10573 10573 10573 10573 10571 10571 10571 10570 10569 10568 10567 10566
10526 10528 10531 10533 10535 10535 10535 10535 10536 10537 10538 10538 10538 10539 10538 10540 10541 10541 10541 10541 10541 10542 10544 10546 10546 10547 10548 10550 10551 10553 10555 10555 10556 10558 10559 10560 10561 10563 10565 10565 10566 10566 10566 10566 10566 10566 10567 10568 10569 10570 10570 10570 10570 10570 10571 10571 10572 10572 10573 10573 10572 10572 10571 10571 10571 10571 10570 10570 10570 10570 10569 10569 10570 10570 10569 10569 10569 10569 10568 10567 10567 10566 10565 10564 10563 10563
10518 10520 10523 10524 10525 10527 10528 10530 10530 10530 10530 10530 10532 10534 10535 10536 10537 10536 10536 10535 10535 10536 10538 10539 10539 10540 10541 10543 10545 10546 10548 10549 10550 10551 10552 10553 10555 10556 10558 10559 10559 10560 10560 10560 10560 10560 10561 10563 10563 10563 10564 10564 10565 10565 10566 10566 10567 10567 10568 10568 10568 10567 10567 10566 10566 10566 10566 10565 10565 10565 10565 10565 10565 10565 10564 10565 10565 10565 10563 10563 10563 10562 10561 10560 10560 10558
10511 10513 10515 10515 10516 10518 10520 10522 10523 10523 10522 10523 10525 10527 10530 10531 10531 10531 10531 10531 10531 10532 10533 10533 10533 10533 10534 10535 10538 10540 10542 10543 10543 10544 10545 10546 10548 10550 10552 10553 10553 10553 10553 10554 10554 10554 10555 10556 10557 10558 10558 10558 10559 10560 10560 10561 10562 10562 10563 10563 10563 10563 10562 10562 10561 10561 10561 10561 10560 10560 10560 10560 10560 10560 10560 10560 10560 10560 10559 10560 10559 10558 10557 10556 10555 10555
10503 10505 10506 10506 10508 10509 10510 10513 10515 10516 10516 10516 10517 10518 10520 10520 10521 10523 10525 10526 10527 10528 10528 10527 10527 10527 10527 10528 10531 10533 10535 10536 10536 10537 10538 10540 10541 10543 10545 10547 10546 10546 10546 10547 10547 10548 10549 10550 10551 10551 10552 10553 10553 10554 10555 10556 10556 10557 10557 10557 10557 10557 10557 10557 10557 10556 10556 10556 10556 10556 10555 10555 10555 10555 10555 10556 10556 10556 10555 10555 10555 10554 10553 10552 10551 10550
10495 10496 10497 10498 10499 10500 10502 10505 10506 10508 10508 10510 10510 10510 10510 10510 10512 10514 10516 10518 10520 10521 10520 10520 10520 10520 10521 10522 10523 10525 10528 10530 10531 10530 10531 10533 10533 10535 10538 10540 10540 10539 10539 10540 10541 10541 10543 10544 10545 10545 10546 10547 10548 10549 10550 10550 10551 10551 10552 10552 10552 10552 10552 10552 10552 10552 10552 10551 10551 10551 10551 10551 10551 10551 10551 10551 10551 10551 10551 10550 10550 10550 10548 10548 10546 10546
10486 10488 10490 10490 10490 10491 10493 10496 10497 10498 10500 10500 10501 10501 10503 10503 10503 10505 10506 10508 10510 10511 10512 10513 10513 10513 10515 10515 10515 10516 10521 10524 10525 10524 10524 10525 10526 10527 10530 10532 10532 10531 10532 10533 10533 10535 10536 10537 10538 10539 10540 10541 10542 10543 10544 10545 10545 10546 10546 10546 10547 10547 10547 10547 10547 10547 10547 10547 10547 10547 10547 10546 10546 10546 10546 10547 10547 10546 10546 10546 10546 10545 10545 10543 10543 10542
10478 10480 10481 10481 10483 10484 10485 10486 10488 10490 10491 10492 10493 10495 10495 10495 10496 10497 10497 10498 10500 10501 10503 10505 10505 10505 10506 10508 10509 10510 10513 10516 10518 10517 10516 10517 10518 10519 10521 10523 10525 10524 10525 10525 10526 10528 10530 10530 10531 10532 10533 10535 10536 10537 10538 10539 10540 10540 10541 10541 10541 10541 10542 10542 10542 10542 10543 10543 10543 10543 10543 10543 10542 10542 10542 10543 10542 10542 10541 10541 10541 10541 10540 10539 10538 10538
10469 10470 10471 10473 10475 10476 10476 10477 10478 10481 10483 10485 10486 10487 10486 10486 10488 10489 10490 10491 10491 10493 10495 10496 10496 10497 10498 10501 10502 10503 10506 10509 10510 10509 10508 10509 10510 10511 10513 10515 10516 10516 10516 10517 10519 10521 10522 10523 10525 10526 10527 10528 10530 10531 10532 10533 10534 10535 10535 10536 10536 10536 10536 10536 10537 10537 10537 10538 10538 10538 10538 10538 10538 10538 10538 10537 10537 10536 10536 10536 10537 10537 10536 10534 10534 10533
10460 10461 10461 10465 10467 10468 10468 10468 10470 10472 10474 10476 10477 10478 10477 10478 10479 10480 10480 10482 10484 10485 10486 10486 10487 10489 10491 10493 10495 10496 10498 10501 10502 10501 10501 10503 10502 10502 10503 10506 10508 10509 10509 10510 10511 10513 10515 10516 10518 10519 10520 10522 10523 10525 10526 10527 10528 10529 10530 10530 10530 10531 10531 10531 10531 10531 10532 10532 10533 10533 10533 10533 10533 10532 10532 10532 10531 10531 10531 10531 10532 10532 10531 10530 10529 10529
10452 10453 10454 10456 10458 10460 10460 10461 10461 10463 10464 10466 10467 10468 10468 10470 10471 10471 10472 10473 10475 10476 10476 10478 10479 10481 10484 10486 10486 10488 10491 10493 10493 10494 10495 10496 10494 10493 10495 10498 10500 10501 10501 10502 10503 10506 10507 10509 10510 10512 10514 10515 10517 10518 10520 10521 10521 10523 10523 10524 10525 10525 10525 10526 10526 10526 10526 10527 10527 10528 10528 10528 10527 10527 10526 10526 10526 10526 10526 10527 10527 10526 10525 10525 10525 10524
10444 10445 10447 10448 10450 10451 10452 10453 10453 10454 10455 10456 10458 10459 10460 10461 10463 10464 10465 10465 10466 10467 10468 10470 10472 10474 10475 10476 10478 10480 10482 10483 10486 10487 10488 10488 10486 10486 10487 10490 10491 10492 10492 10493 10496 10498 10500 10501 10502 10505 10507 10508 10510 10511 10513 10514 10515 10516 10517 10518 10518 10519 10520 10520 10520 10520 10521 10521 10521 10521 10522 10522 10521 10521 10521 10521 10521 10522 10523 10523 10522 10521 10521 10521 10520 10520
10435 10437 10438 10440 10441 10443 10443 10445 10445 10446 10447 10448 10449 10450 10451 10453 10455 10456 10457 10458 10459 10460 10461 10463 10464 10465 10465 10467 10470 10471 10472 10475 10477 10479 10480 10480 10479 10479 10480 10481 10483 10484 10484 10485 10488 10490 10492 10493 10495 10496 10500 10501 10503 10505 10506 10507 10508 10509 10510 10511 10511 10513 10513 10513 10513 10514 10514 10515 10515 10515 10515 10516 10516 10516 10516 10516 10516 10517 10518 10518 10518 10516 10517 10516 10516 10516
10426 10428 10430 10431 10432 10433 10435 10436 10436 10438 10438 10440 10440 10441 10443 10444 10446 10447 10449 10450 10450 10451 10453 10454 10454 10455 10456 10459 10461 10463 10463 10465 10468 10470 10471 10471 10471 10471 10471 10473 10475 10476 10476 10477 10480 10482 10484 10485 10486 10488 10491 10493 10495 10497 10499 10500 10501 10502 10503 10504 10505 10506 10506 10506 10507 10507 10507 10508 10508 10508 10509 10510 10511 10511 10511 10511 10511 10513 10513 10513 10513 10512 10513 10512 10512 10511
10416 10418 10420 10421 10423 10424 10425 10426 10427 10428 10430 10430 10431 10432 10433 10436 10438 10439 10440 10439 10440 10442 10445 10445 10445 10446 10448 10451 10453 10454 10455 10457 10460 10461 10462 10463 10464 10464 10463 10465 10467 10469 10470 10470 10471 10474 10476 10478 10479 10481 10483 10485 10487 10490 10491 10493 10494 10495 10496 10497 10498 10499 10500 10500 10500 10501 10501 10501 10502 10503 10503 10505 10505 10506 10506 10506 10507 10508 10508 10508 10508 10508 10508 10508 10508 10508
10405 10406 10408 10410 10412 10413 10415 10416 10417 10418 10420 10421 10421 10423 10425 10426 10428 10429 10428 10428 10431 10434 10436 10436 10436 10438 10440 10442 10443 10445 10446 10450 10451 10451 10453 10456 10456 10455 10454 10456 10459 10461 10462 10462 10463 10466 10469 10470 10471 10473 10475 10477 10480 10481 10483 10485 10486 10488 10489 10490 10491 10493 10494 10495 10495 10495 10495 10496 10496 10497 10498 10499 10500 10500 10501 10501 10501 10502 10503 10503 10503 10503 10503 10503 10503 10503
10394 10396 10398 10399 10401 10403 10404 10406 10407 10408 10410 10411 10411 10413 10415 10416 10418 10418 10418 10420 10423 10426 10426 10426 10426 10429 10431 10433 10434 10436 10439 10441 10442 10443 10446 10449 10448 10446 10445 10449 10451 10452 10453 10455 10456 10458 10460 10461 10463 10466 10468 10470 10471 10474 10476 10478 10480 10481 10482 10483 10485 10486 10488 10488 10489 10490 10490 10490 10491 10491 10493 10494 10495 10495 10496 10496 10496 10497 10498 10498 10498 10498 10498 10499 10499 10498
10383 10385 10386 10388 10390 10391 10393 10395 10396 10398 10400 10401 10401 10403 10404 10406 10407 10408 10410 10412 10415 10417 10416 10416 10417 10420 10422 10425 10426 10428 10430 10431 10432 10435 10440 10441 10439 10436 10438 10441 10443 10443 10445 10447 10448 10450 10450 10451 10455 10458 10460 10461 10463 10466 10468 10470 10472 10474 10475 10477 10478 10480 10481 10482 10483 10483 10484 10485 10485 10486 10487 10488 10490 10490 10491 10491 10491 10492 10492 10493 10493 10493 10493 10494 10494 10494
10373 10375 10376 10376 10378 10380 10382 10384 10385 10387 10389 10390 10391 10393 10394 10395 10397 10398 10400 10403 10405 10406 10406 10407 10409 10411 10413 10416 10418 10419 10419 10420 10423 10428 10432 10433 10430 10428 10430 10434 10435 10434 10436 10439 10441 10442 10441 10442 10445 10448 10451 10454 10456 10458 10460 10462 10465 10466 10468 10470 10472 10473 10475 10476 10477 10478 10478 10478 10479 10480 10481 10483 10484 10485 10486 10486 10486 10486 10487 10488 10488 10488 10489 10489 10489 10489
10363 10365 10365 10366 10368 10370 10371 10373 10374 10375 10377 10379 10380 10382 10383 10385 10386 10388 10390 10392 10394 10395 10396 10398 10400 10402 10405 10407 10409 10410 10410 10411 10415 10419 10423 10424 10421 10420 10423 10426 10427 10426 10428 10431 10433 10434 10435 10435 10436 10440 10443 10446 10448 10450 10452 10455 10457 10460 10461 10463 10465 10466 10468 10469 10470 10471 10472 10473 10473 10474 10475 10476 10478 10480 10481 10481 10481 10481 10482 10482 10483 10483 10483 10483 10483 10483
10353 10355 10355 10356 10358 10359 10360 10361 10363 10364 10366 10367 10368 10370 10372 10374 10376 10378 10380 10381 10383 10385 10387 10389 10391 10393 10395 10398 10399 10401 10402 10405 10407 10410 10413 10414 10413 10412 10414 10418 10419 10420 10420 10422 10425 10426 10428 10428 10430 10431 10435 10438 10440 10442 10445 10448 10450 10452 10455 10456 10458 10460 10461 10463 10464 10465 10466 10466 10468 10468 10469 10470 10471 10473 10475 10476 10476 10476 10476 10477 10478 10478 10478 10479 10479 10479
10343 10344 10345 10346 10347 10348 10349 10350 10351 10353 10354 10356 10357 10359 10361 10363 10365 10366 10368 10370 10373 10375 10377 10379 10381 10383 10385 10388 10390 10392 10394 10396 10398 10401 10404 10405 10405 10404 10405 10409 10411 10411 10413 10415 10416 10418 10420 10421 10423 10425 10428 10429 10431 10435 10438 10440 10443 10445 10448 10450 10451 10453 10454 10456 10458 10458 10460 10460 10461 10462 10463 10464 10465 10466 10468 10470 10471 10471 10471 10472 10473 10473 10473 10474 10475 10475
10333 10333 10334 10335 10336 10338 10338 10340 10341 10342 10343 10345 10346 10348 10350 10351 10353 10355 10357 10359 10361 10364 10366 10369 10371 10373 10376 10378 10381 10383 10385 10387 10390 10393 10396 10396 10396 10396 10398 10400 10401 10403 10406 10407 10408 10410 10412 10413 10415 10418 10420 10422 10424 10426 10430 10433 10436 10438 10440 10443 10444 10446 10447 10449 10451 10452 10453 10455 10455 10456 10456 10458 10459 10460 10462 10464 10465 10466 10467 10467 10468 10468 10469 10470 10470 10470
10322 10322 10323 10324 10326 10327 10328 10329 10330 10331 10333 10334 10335 10336 10338 10340 10342 10344 10346 10348 10350 10353 10355 10358 10361 10363 10366 10369 10371 10374 10376 10378 10381 10385 10387 10388 10388 10389 10390 10391 10393 10396 10399 10400 10400 10402 10404 10406 10407 10410 10413 10415 10417 10418 10421 10425 10428 10431 10433 10435 10437 10439 10440 10442 10444 10446 10447 10448 10449 10450 10450 10451 10452 10453 10455 10457 10459 10461 10461 10462 10463 10463 10464 10465 10465 10465
10311 10311 10312 10313 10315 10316 10317 10318 10320 10321 10322 10323 10325 10326 10328 10330 10331 10333 10335 10337 10340 10342 10344 10347 10350 10353 10356 10358 10361 10364 10366 10370 10373 10376 10378 10378 10380 10381 10382 10383 10385 10388 10391 10392 10393 10394 10396 10398 10400 10402 10405 10408 10410 10411 10413 10416 10420 10423 10425 10427 10430 10432 10434 10436 10438 10440 10441 10442 10443 10443 10444 10445 10446 10447 10448 10450 10453 10455 10456 10456 10458 10458 10459 10460 10460 10461
10300 10301 10301 10302 10304 10305 10306 10308 10308 10310 10311 10313 10314 10315 10317 10319 10321 10323 10325 10326 10329 10331 10333 10335 10338 10341 10345 10348 10351 10353 10356 10360 10363 10366 10368 10370 10371 10373 10374 10375 10376 10379 10381 10384 10385 10386 10389 10391 10393 10395 10397 10400 10402 10404 10406 10409 10412 10415 10416 10419 10423 10426 10428 10430 10431 10433 10435 10436 10436 10438 10438 10439 10440 10441 10442 10444 10446 10448 10450 10451 10452 10453 10454 10455 10455 10456
10289 10290 10290 10291 10293 10295 10296 10296 10298 10299 10301 10302 10304 10305 10307 10308 10310 10312 10314 10316 10318 10320 10322 10325 10327 10330 10334 10337 10340 10343 10346 10349 10351 10355 10358 10360 10362 10364 10365 10366 10368 10370 10373 10375 10377 10379 10381 10383 10385 10387 10390 10392 10395 10397 10400 10402 10404 10406 10408 10412 10416 10418 10420 10423 10425 10428 10429 10430 10431 10432 10433 10433 10434 10435 10436 10437 10440 10441 10443 10444 10445 10447 10448 10449 10450 10450
10278 10279 10279 10280 10281 10283 10285 10286 10287 10288 10290 10292 10294 10295 10296 10298 10300 10301 10303 10305 10307 10310 10312 10315 10317 10320 10323 10326 10329 10331 10335 10338 10341 10344 10348 10351 10353 10355 10357 10358 10360 10361 10364 10366 10369 10371 10373 10375 10376 10379 10382 10385 10388 10390 10392 10395 10396 10398 10401 10405 10408 10410 10412 10416 10419 10421 10422 10424 10425 10425 10426 10427 10428 10429 10430 10431 10433 10435 10436 10438 10439 10440 10442 10443 10444 10445
10268 10268 10268 10268 10270 10272 10274 10275 10276 10278 10280 10282 10283 10285 10286 10287 10288 10290 10292 10295 10297 10300 10302 10305 10307 10310 10312 10315 10318 10321 10324 10327 10330 10334 10338 10341 10343 10345 10348 10350 10351 10354 10356 10358 10360 10361 10364 10366 10369 10372 10375 10378 10380 10383 10385 10386 10388 10391 10395 10398 10400 10401 10405 10409 10412 10415 10416 10418 10418 10419 10420 10420 10421 10423 10424 10425 10427 10429 10431 10432 10433 10435 10436 10438 10439 10440
10257 10257 10257 10258 10259 10261 10263 10264 10266 10267 10270 10271 10272 10273 10274 10275 10277 10280 10281 10284 10286 10288 10291 10294 10297 10300 10302 10304 10307 10310 10313 10317 10320 10324 10327 10330 10333 10336 10338 10340 10343 10345 10347 10349 10351 10352 10355 10358 10361 10364 10367 10370 10373 10376 10377 10378 10381 10384 10388 10390 10391 10394 10398 10401 10405 10407 10410 10411 10411 10412 10413 10414 10415 10416 10418 10420 10421 10423 10425 10427 10428 10430 10430 10431 10433 10434
10245 10245 10246 10247 10249 10250 10252 10253 10255 10256 10258 10260 10260 10261 10262 10264 10266 10270 10272 10273 10275 10277 10280 10283 10286 10290 10292 10295 10298 10301 10305 10307 10310 10313 10317 10320 10323 10325 10328 10330 10332 10335 10338 10341 10342 10343 10345 10348 10352 10355 10358 10362 10366 10368 10370 10370 10373 10376 10380 10382 10385 10388 10391 10393 10396 10400 10403 10404 10405 10405 10406 10407 10408 10409 10411 10413 10415 10417 10419 10421 10423 10423 10425 10426 10427 10428
10232 10233 10235 10236 10238 10239 10240 10241 10243 10244 10245 10247 10248 10250 10251 10253 10256 10259 10261 10263 10265 10266 10270 10273 10276 10279 10282 10285 10287 10291 10295 10298 10301 10304 10307 10310 10312 10315 10318 10320 10322 10325 10327 10331 10333 10334 10336 10340 10342 10345 10349 10354 10358 10361 10362 10363 10365 10368 10371 10374 10378 10380 10383 10384 10387 10391 10395 10396 10397 10398 10400 10401 10401 10403 10404 10406 10408 10410 10413 10415 10416 10418 10418 10420 10421 10422
10219 10220 10221 10223 10225 10227 10228 10230 10230 10231 10233 10235 10237 10238 10239 10241 10244 10247 10250 10251 10253 10256 10258 10262 10265 10268 10271 10274 10276 10280 10285 10290 10292 10294 10297 10300 10302 10305 10308 10310 10312 10314 10316 10320 10321 10324 10327 10330 10332 10335 10339 10345 10349 10352 10354 10355 10357 10360 10363 10366 10370 10373 10375 10376 10380 10384 10386 10388 10390 10391 10393 10394 10395 10396 10397 10398 10401 10403 10406 10408 10410 10411 10412 10413 10415 10416
10206 10206 10208 10210 10211 10213 10215 10216 10218 10220 10222 10224 10225 10226 10226 10229 10232 10235 10238 10240 10242 10244 10247 10251 10255 10258 10261 10263 10266 10270 10275 10280 10282 10283 10286 10290 10292 10295 10298 10301 10303 10305 10307 10309 10311 10313 10316 10320 10321 10325 10330 10335 10339 10342 10345 10348 10350 10352 10355 10358 10362 10365 10368 10370 10373 10375 10378 10380 10382 10384 10386 10387 10388 10390 10390 10391 10393 10396 10398 10401 10403 10404 10405 10407 10408 10410
10192 10193 10194 10196 10198 10200 10201 10203 10205 10208 10210 10211 10213 10213 10215 10217 10220 10223 10225 10228 10230 10233 10235 10238 10242 10246 10250 10251 10255 10260 10265 10268 10270 10272 10275 10279 10282 10285 10288 10291 10294 10296 10298 10300 10301 10304 10306 10309 10312 10316 10320 10324 10328 10331 10335 10339 10342 10345 10346 10350 10354 10358 10360 10362 10365 10367 10370 10373 10375 10376 10378 10381 10382 10382 10382 10384 10386 10389 10391 10393 10396 10398 10399 10401 10402 10403
10179 10180 10181 10183 10185 10186 10188 10190 10192 10195 10196 10198 10199 10200 10203 10205 10208 10211 10213 10215 10218 10221 10223 10226 10230 10233 10237 10240 10244 10249 10254 10256 10258 10261 10265 10268 10271 10274 10277 10281 10284 10286 10288 10291 10293 10295 10296 10299 10302 10306 10310 10315 10318 10322 10326 10330 10334 10337 10339 10342 10346 10350 10352 10354 10356 10360 10363 10365 10367 10369 10371 10373 10374 10375 10375 10378 10380 10381 10384 10386 10389 10391 10393 10394 10396 10396
10166 10167 10169 10170 10172 10173 10175 10176 10178 10181 10183 10185 10186 10188 10190 10193 10196 10198 10200 10203 10205 10208 10211 10215 10217 10221 10225 10228 10233 10238 10242 10245 10248 10251 10254 10256 10260 10262 10265 10269 10273 10276 10278 10281 10283 10285 10287 10290 10293 10296 10301 10306 10310 10314 10318 10321 10326 10329 10332 10335 10338 10341 10344 10346 10349 10352 10355 10358 10360 10361 10364 10365 10366 10367 10369 10371 10372 10374 10376 10380 10382 10384 10386 10388 10389 10390
10154 10155 10157 10158 10160 10161 10162 10164 10166 10168 10170 10172 10174 10175 10177 10180 10183 10185 10188 10190 10193 10196 10199 10202 10205 10208 10212 10216 10220 10225 10230 10233 10237 10240 10242 10245 10248 10250 10253 10256 10260 10265 10267 10270 10272 10275 10277 10280 10283 10287 10291 10297 10302 10306 10309 10313 10316 10321 10325 10327 10330 10333 10336 10339 10341 10344 10347 10350 10351 10354 10356 10358 10359 10361 10363 10364 10365 10366 10370 10373 10375 10377 10379 10381 10383 10384
10143 10144 10145 10146 10148 10149 10150 10152 10153 10155 10157 10159 10161 10163 10165 10167 10170 10172 10175 10178 10181 10183 10186 10190 10193 10196 10200 10204 10208 10212 10216 10221 10225 10228 10230 10233 10236 10239 10241 10245 10248 10252 10256 10258 10261 10264 10267 10270 10273 10277 10281 10288 10294 10298 10301 10305 10308 10312 10316 10318 10321 10325 10329 10331 10333 10336 10339 10341 10343 10346 10348 10350 10351 10353 10355 10356 10358 10360 10363 10365 10368 10370 10372 10374 10376 10377